Weather History for KFIG - September, 2013

Change the Weather History Date:

Monday, September 30, 2013

  Actual Average (KDUJ) Record (KDUJ)
Temperature  
Mean Temperature 58 °F 54 °F  
Max Temperature 73 °F 64 °F 81 °F (1986)
Min Temperature 42 °F 44 °F 31 °F (1993)
Degree Days  
Heating Degree Days 8 11  
Month to date heating degree days 183  
Since 1 July heating degree days 246  
Cooling Degree Days 0 0  
Month to date cooling degree days 29  
Year to date cooling degree days 360  
Growing Degree Days 8 (Base 50)    
Moisture  
Dew Point 48 °F    
Average Humidity 91    
Maximum Humidity 100    
Minimum Humidity 51    
Precipitation  
Precipitation 0.01 in 0.10 in 1.31 in (2010)
Month to date precipitation 3.63  
Sea Level Pressure  
Sea Level Pressure 30.07 in    
Wind  
Wind Speed 3 mph (NNW)    
Max Wind Speed 8 mph    
Max Gust Speed -    
Visibility 5 miles    
Events Fog    
T = Trace of Precipitation, MM = Missing Value Source: NWS Daily Summary

Daily Weather History Graph

Daily Weather History Graph

Search for Another Location

Airport or City:

Trip Planner

Search our weather history database for the weather conditions in past years. The results will help you decide how hot, cold, wet, or windy it might be!

Date:

Astronomy

Sep. 30, 2013 Rise Set
Actual Time 7:09 AM EDT 6:56 PM EDT
Civil Twilight 6:42 AM EDT 7:24 PM EDT
Nautical Twilight 6:10 AM EDT 7:56 PM EDT
Astronomical Twilight 5:37 AM EDT 8:28 PM EDT
Moon 2:42 AM EDT (9/30) 4:28 PM EDT (9/30)
Length of Visible Light 12h 42m
Length of Day
11h 47m
Waning Crescent, 19% of the Moon is Illuminated
Sep 30
Waning Crescent
Oct 4
New
Oct 11
First Quarter
Oct 18
Full
Oct 26
Last Quarter

Hourly Weather History & Observations

Time (EDT) Temp. Windchill Dew Point Humidity Pressure Visibility Wind Dir Wind Speed Gust Speed Precip Events Conditions
12:54 AM 48.0 °F - 46.9 °F 96% 30.08 in 10.0 mi NNW 5.8 mph - 0.01 in   Clear
1:54 AM 48.0 °F - 46.9 °F 96% 30.08 in 10.0 mi NNW 3.5 mph - N/A   Clear
2:54 AM 46.9 °F - 46.9 °F 100% 30.07 in 9.0 mi Calm Calm - N/A   Clear
3:13 AM 46.4 °F 45.2 °F 46.4 °F 100% 30.07 in 1.5 mi NNE 3.5 mph - N/A   Clear
3:18 AM 44.6 °F 43.1 °F 44.6 °F 100% 30.07 in 0.2 mi NNE 3.5 mph - N/A Fog Fog
3:32 AM 44.6 °F 42.2 °F 44.6 °F 100% 30.07 in 0.2 mi North 4.6 mph - N/A Fog Fog
3:41 AM 44.6 °F 43.1 °F 44.6 °F 100% 30.07 in 0.2 mi North 3.5 mph - N/A Fog Fog
3:54 AM 44.1 °F 41.5 °F 44.1 °F 100% 30.07 in 1.5 mi North 4.6 mph - N/A   Mostly Cloudy
3:58 AM 44.6 °F 42.2 °F 44.6 °F 100% 30.07 in 3.0 mi North 4.6 mph - N/A   Mostly Cloudy
4:06 AM 44.6 °F 42.2 °F 44.6 °F 100% 30.07 in 1.8 mi NNE 4.6 mph - N/A   Mostly Cloudy
4:15 AM 44.6 °F 43.1 °F 44.6 °F 100% 30.07 in 0.5 mi NNE 3.5 mph - N/A Fog Fog
4:22 AM 42.8 °F 40.1 °F 42.8 °F 100% 30.07 in 0.2 mi North 4.6 mph - N/A Fog Fog
4:37 AM 42.8 °F 41.1 °F 42.8 °F 100% 30.07 in 0.5 mi NNW 3.5 mph - N/A Fog Fog
4:48 AM 44.6 °F 43.1 °F 44.6 °F 100% 30.07 in 3.0 mi North 3.5 mph - N/A   Mostly Cloudy
4:54 AM 43.0 °F - 43.0 °F 100% 30.07 in 7.0 mi Calm Calm - N/A   Mostly Cloudy
5:11 AM 44.6 °F - 44.6 °F 100% 30.07 in 1.5 mi Calm Calm - N/A   Scattered Clouds
5:15 AM 44.6 °F - 44.6 °F 100% 30.08 in 0.8 mi Calm Calm - N/A   Mist
5:19 AM 44.6 °F - 44.6 °F 100% 30.07 in 1.0 mi Calm Calm - N/A   Scattered Clouds
5:28 AM 42.8 °F 41.1 °F 42.8 °F 100% 30.08 in 9.0 mi North 3.5 mph - N/A   Partly Cloudy
5:54 AM 43.0 °F 41.3 °F 43.0 °F 100% 30.08 in 8.0 mi NNE 3.5 mph - N/A   Scattered Clouds
6:54 AM 43.0 °F 41.3 °F 43.0 °F 100% 30.09 in 3.0 mi NNE 3.5 mph - N/A   Mostly Cloudy
6:57 AM 42.8 °F - 42.8 °F 100% 30.08 in 1.8 mi Calm Calm - N/A   Mostly Cloudy
7:00 AM 44.6 °F - 44.6 °F 100% 30.09 in 0.8 mi Calm Calm - N/A   Mostly Cloudy
7:09 AM 44.6 °F - 44.6 °F 100% 30.09 in 0.2 mi Calm Calm - N/A Fog Fog
7:54 AM 44.1 °F 42.5 °F 44.1 °F 100% 30.10 in 0.2 mi North 3.5 mph - N/A Fog Fog
8:09 AM 44.6 °F - 44.6 °F 100% 30.09 in 1.0 mi Calm Calm - N/A   Mist
8:11 AM 44.6 °F - 44.6 °F 100% 30.09 in 2.0 mi Calm Calm - N/A   Scattered Clouds
8:19 AM 44.6 °F 43.1 °F 44.6 °F 100% 30.09 in 5.0 mi NE 3.5 mph - N/A   Scattered Clouds
8:27 AM 44.6 °F 43.1 °F 44.6 °F 100% 30.09 in 1.8 mi North 3.5 mph - N/A   Scattered Clouds
8:39 AM 46.4 °F - 46.4 °F 100% 30.09 in 3.0 mi Calm Calm - N/A   Partly Cloudy
8:54 AM 46.0 °F - 46.0 °F 100% 30.11 in 7.0 mi Calm Calm - N/A   Partly Cloudy
9:54 AM 50.0 °F - 50.0 °F 100% 30.10 in 10.0 mi Calm Calm - N/A   Overcast
10:54 AM 60.1 °F - 51.1 °F 72% 30.09 in 10.0 mi Variable 4.6 mph - N/A   Mostly Cloudy
11:54 AM 63.0 °F - 51.1 °F 65% 30.07 in 10.0 mi South 3.5 mph - N/A   Mostly Cloudy
12:54 PM 69.1 °F - 53.1 °F 57% 30.06 in 10.0 mi SSW 5.8 mph - N/A   Scattered Clouds
1:54 PM 71.1 °F - 54.0 °F 55% 30.03 in 10.0 mi West 3.5 mph - N/A   Mostly Cloudy
2:54 PM 73.0 °F - 54.0 °F 51% 30.02 in 10.0 mi Variable 6.9 mph - N/A   Partly Cloudy
3:54 PM 70.0 °F - 55.0 °F 59% 30.01 in 10.0 mi West 3.5 mph - N/A   Overcast
4:54 PM 72.0 °F - 55.9 °F 57% 30.00 in 10.0 mi West 8.1 mph - N/A   Overcast
5:54 PM 69.1 °F - 55.9 °F 63% 30.01 in 10.0 mi West 4.6 mph - N/A   Mostly Cloudy
6:54 PM 66.0 °F - 55.9 °F 70% 30.03 in 10.0 mi West 3.5 mph - N/A   Overcast
7:54 PM 64.9 °F - 57.0 °F 75% 30.04 in 10.0 mi WSW 3.5 mph - N/A   Overcast
8:54 PM 64.0 °F - 57.0 °F 78% 30.05 in 10.0 mi Calm Calm - N/A   Overcast
9:54 PM 62.1 °F - 57.9 °F 86% 30.05 in 10.0 mi Calm Calm - N/A   Overcast
10:54 PM 60.1 °F - 57.9 °F 93% 30.04 in 10.0 mi Calm Calm - N/A   Overcast
11:54 PM 59.0 °F - 57.0 °F 93% 30.04 in 8.0 mi Calm Calm - N/A   Scattered Clouds